Simultaneous Nadir Overpasses (SNOs) Predictions

Prediction of SNOs between GOES-14 and AQUA Satellite Orbit:

Table of predicted SNOs for the next 14.0 days since TLE Epoch: 12/14/2024
Index Date Time (GOES-14) GOES-14 Lat,Lon AQUA Lat,Lon Distance(km) Time Diff (sec)
1 12/14/2024 21:24:29 -0.13,-108.41 0.51,-105.28 355.35 80
2 12/15/2024 09:46:43 0.15,-108.47 0.49,-110.02 175.27 80
3 12/17/2024 09:25:17 0.15,-108.46 -0.51,-105.42 345.33 80
4 12/17/2024 21:47:38 -0.17,-108.39 -0.54,-110.18 203.54 80
5 12/19/2024 21:26:11 -0.16,-108.38 0.47,-105.59 318.13 80
6 12/20/2024 09:48:24 0.18,-108.44 0.55,-110.31 211.91 80
7 12/22/2024 09:26:55 0.17,-108.44 -0.41,-105.70 310.64 80
8 12/22/2024 21:49:14 -0.19,-108.37 -0.66,-110.45 237.85 80
9 12/24/2024 21:27:45 -0.18,-108.36 0.38,-105.85 285.37 80
10 12/25/2024 09:49:57 0.20,-108.43 0.67,-110.57 244.29 80
11 12/27/2024 09:28:26 0.20,-108.41 -0.32,-105.96 279.11 80
12 12/27/2024 21:50:46 -0.22,-108.34 -0.72,-110.71 269.30 80
